Main page
METAR-TAF:

METAR-TAF

Airports :

Tampa Executive Airport

Tampa, Florida, United States

latitude: 28-00-50N, longitude: 082-20-43W, elevation: 23 ft

Current weather observation

The report was made 13 minutes ago, at 09:15 UTC
Calm wind
Temperature 75°F
Humidity 94%
Pressure 29.93 in. Hg
Visibility: 10 miles
Broken clouds at a height of 3600 ft
Broken clouds at a height of 4300 ft
Overcast at a height of 5500 ft

METAR: KVDF 240915Z AUTO 00000KT 10SM BKN036 BKN043 OVC055 24/23 A2993 RMK AO2

Time: 05:28 (09:28 UTC)


TAF: missing

Weather observations and forecasts of more than 4000 airports (METAR and TAF reports).

The available stations are represented by yellow and red dots on the map.

Hover mouse over dot to see the name of the station.

Then click to see weather observations and forecasts.

To change the map : click on the green buttons with a black cross to zoom in, on the green button with a dash to zoom out, or on the green arrows for adjacent maps.


METAR-TAF: